| time (UTC) | temp F | wind direction | speed MPH | gust MPH | rain 1hr in | rain 24hr in | rain mn in | humidity % | barometer mb |
| 20260506135007 | 44 | 60 | 3.0 | 6.0 | 0.00 | 0.00 | 0.00 | 62 | 1018.1 |
| 20260506134504 | 44 | 288 | 2.0 | 4.0 | 0.00 | 0.00 | 0.00 | 62 | 1018.1 |
| 20260506134000 | 44 | 58 | 1.0 | 5.0 | 0.00 | 0.00 | 0.00 | 63 | 1017.9 |
| 20260506133457 | 44 | 41 | 5.0 | 6.0 | 0.00 | 0.00 | 0.00 | 62 | 1017.9 |
| 20260506132954 | 44 | 81 | 2.0 | 6.0 | 0.00 | 0.00 | 0.00 | 62 | 1017.7 |
| 20260506132451 | 44 | 51 | 1.0 | 6.0 | 0.00 | 0.00 | 0.00 | 62 | 1017.6 |
| 20260506131948 | 44 | 67 | 4.0 | 6.0 | 0.00 | 0.00 | 0.00 | 62 | 1018.1 |
| 20260506131445 | 44 | 54 | 2.0 | 6.0 | 0.00 | 0.00 | 0.00 | 63 | 1017.6 |
| 20260506130942 | 44 | 340 | 0.0 | 3.0 | 0.00 | 0.00 | 0.00 | 63 | 1018.0 |
| 20260506130438 | 44 | 39 | 6.0 | 9.0 | 0.00 | 0.00 | 0.00 | 63 | 1018.0 |
| 20260506125936 | 44 | 29 | 4.0 | 6.0 | 0.00 | 0.00 | 0.00 | 63 | 1017.5 |
| 20260506125434 | 44 | 50 | 3.0 | 7.0 | 0.00 | 0.00 | 0.00 | 64 | 1017.5 |
| 20260506124932 | 44 | 37 | 6.0 | 6.0 | 0.00 | 0.00 | 0.00 | 64 | 1017.6 |
| 20260506124429 | 44 | 73 | 4.0 | 6.0 | 0.00 | 0.00 | 0.00 | 64 | 1017.6 |
| 20260506123927 | 44 | 52 | 6.0 | 7.0 | 0.00 | 0.00 | 0.00 | 64 | 1017.4 |
| 20260506123425 | 44 | 21 | 3.0 | 8.0 | 0.00 | 0.00 | 0.00 | 64 | 1017.3 |
| 20260506122922 | 44 | 70 | 5.0 | 8.0 | 0.00 | 0.00 | 0.00 | 63 | 1017.3 |
| 20260506122419 | 44 | 55 | 10.0 | 12.0 | 0.00 | 0.00 | 0.00 | 63 | 1017.0 |
| 20260506121917 | 44 | 317 | 4.0 | 11.0 | 0.00 | 0.00 | 0.00 | 63 | 1017.3 |
| 20260506121414 | 44 | 317 | 6.0 | 7.0 | 0.00 | 0.00 | 0.00 | 63 | 1016.6 |
| 20260506120911 | 44 | 321 | 5.0 | 7.0 | 0.00 | 0.00 | 0.00 | 63 | 1016.7 |
| 20260506120408 | 44 | 313 | 3.0 | 6.0 | 0.00 | 0.00 | 0.00 | 63 | 1016.9 |
| 20260506115906 | 44 | 63 | 5.0 | 9.0 | 0.00 | 0.00 | 0.00 | 63 | 1016.8 |
| 20260506115404 | 44 | 49 | 2.0 | 6.0 | 0.00 | 0.00 | 0.00 | 63 | 1016.8 |
| 20260506114902 | 44 | 44 | 4.0 | 4.0 | 0.00 | 0.00 | 0.00 | 63 | 1016.8 |
| 20260506114359 | 44 | 7 | 2.0 | 4.0 | 0.00 | 0.00 | 0.00 | 64 | 1016.7 |
| 20260506113858 | 44 | 37 | 1.0 | 6.0 | 0.00 | 0.00 | 0.00 | 63 | 1016.9 |
| 20260506113354 | 44 | 337 | 1.0 | 6.0 | 0.00 | 0.00 | 0.00 | 63 | 1016.9 |
| 20260506112851 | 44 | 80 | 1.0 | 3.0 | 0.00 | 0.00 | 0.00 | 63 | 1016.7 |
| 20260506112348 | 44 | 76 | 0.0 | 3.0 | 0.00 | 0.00 | 0.00 | 63 | 1016.7 |
| 20260506111845 | 44 | 2 | 2.0 | 3.0 | 0.00 | 0.00 | 0.00 | 64 | 1016.7 |
| 20260506111344 | 44 | 263 | 1.0 | 3.0 | 0.00 | 0.00 | 0.00 | 64 | 1016.9 |
| 20260506110841 | 44 | 357 | 2.0 | 2.0 | 0.00 | 0.00 | 0.00 | 64 | 1016.8 |
| 20260506110338 | 44 | 350 | 2.0 | 3.0 | 0.00 | 0.00 | 0.00 | 64 | 1016.8 |
| 20260506105835 | 44 | 69 | 1.0 | 2.0 | 0.00 | 0.00 | 0.00 | 65 | 1016.6 |
| 20260506105331 | 44 | 68 | 2.0 | 2.0 | 0.00 | 0.00 | 0.00 | 64 | 1016.4 |
| 20260506104829 | 44 | 317 | 1.0 | 4.0 | 0.00 | 0.00 | 0.00 | 64 | 1016.3 |
| 20260506104326 | 44 | 324 | 2.0 | 3.0 | 0.00 | 0.00 | 0.00 | 63 | 1016.4 |
| 20260506103824 | 44 | 71 | 2.0 | 2.0 | 0.00 | 0.00 | 0.00 | 63 | 1016.6 |
| 20260506103321 | 45 | 67 | 4.0 | 6.0 | 0.00 | 0.00 | 0.00 | 62 | 1016.4 |
| 20260506102819 | 45 | 49 | 0.0 | 4.0 | 0.00 | 0.00 | 0.00 | 63 | 1016.3 |
| 20260506102316 | 45 | 66 | 2.0 | 3.0 | 0.00 | 0.00 | 0.00 | 63 | 1016.3 |
| 20260506101813 | 44 | 330 | 2.0 | 2.0 | 0.00 | 0.00 | 0.00 | 64 | 1016.1 |
| 20260506101309 | 44 | 329 | 3.0 | 4.0 | 0.00 | 0.00 | 0.00 | 65 | 1016.2 |
| 20260506100807 | 44 | 8 | 2.0 | 6.0 | 0.00 | 0.00 | 0.00 | 65 | 1015.8 |
| 20260506100305 | 45 | 55 | 4.0 | 5.0 | 0.00 | 0.00 | 0.00 | 64 | 1016.2 |
| 20260506095804 | 45 | 67 | 2.0 | 3.0 | 0.00 | 0.00 | 0.00 | 65 | 1016.0 |
| 20260506095300 | 45 | 75 | 3.0 | 6.0 | 0.00 | 0.00 | 0.00 | 65 | 1016.1 |
| 20260506094756 | 45 | 56 | 2.0 | 6.0 | 0.00 | 0.00 | 0.00 | 66 | 1016.0 |
| 20260506094255 | 45 | 323 | 0.0 | 6.0 | 0.00 | 0.00 | 0.00 | 66 | 1016.1 |
| 20260506093753 | 45 | 328 | 4.0 | 4.0 | 0.00 | 0.00 | 0.00 | 67 | 1016.1 |
| 20260506093250 | 45 | 69 | 3.0 | 3.0 | 0.00 | 0.00 | 0.00 | 67 | 1016.1 |
| 20260506092748 | 45 | 343 | 0.0 | 2.0 | 0.00 | 0.00 | 0.00 | 67 | 1016.1 |
| 20260506092246 | 46 | 77 | 2.0 | 3.0 | 0.00 | 0.00 | 0.00 | 65 | 1016.2 |
| 20260506091743 | 46 | 89 | 2.0 | 6.0 | 0.00 | 0.00 | 0.00 | 65 | 1016.0 |
| 20260506091240 | 46 | 92 | 0.0 | 5.0 | 0.00 | 0.00 | 0.00 | 66 | 1016.1 |
| 20260506090738 | 46 | 321 | 2.0 | 4.0 | 0.00 | 0.00 | 0.00 | 67 | 1016.0 |
| 20260506090235 | 46 | 71 | 1.0 | 4.0 | 0.00 | 0.00 | 0.00 | 66 | 1015.8 |
| 20260506085731 | 46 | 33 | 2.0 | 5.0 | 0.00 | 0.00 | 0.00 | 66 | 1016.1 |
| 20260506085228 | 47 | 56 | 2.0 | 4.0 | 0.00 | 0.00 | 0.00 | 65 | 1015.8 |
| 20260506084724 | 47 | 82 | 2.0 | 6.0 | 0.00 | 0.00 | 0.00 | 65 | 1016.1 |
| 20260506084220 | 47 | 108 | 5.0 | 9.0 | 0.00 | 0.00 | 0.00 | 63 | 1015.6 |
| 20260506083718 | 47 | 66 | 4.0 | 5.0 | 0.00 | 0.00 | 0.00 | 62 | 1016.0 |
| 20260506083216 | 47 | 133 | 2.0 | 4.0 | 0.00 | 0.00 | 0.00 | 61 | 1016.0 |
| 20260506082713 | 48 | 84 | 2.0 | 3.0 | 0.00 | 0.00 | 0.00 | 59 | 1015.8 |
| 20260506082208 | 47 | 266 | 1.0 | 1.0 | 0.00 | 0.00 | 0.00 | 59 | 1016.0 |
| 20260506081706 | 47 | 302 | 0.0 | 3.0 | 0.00 | 0.00 | 0.00 | 61 | 1016.1 |
| 20260506081203 | 48 | 207 | 2.0 | 3.0 | 0.00 | 0.00 | 0.00 | 60 | 1016.2 |
| 20260506080701 | 48 | 189 | 2.0 | 3.0 | 0.00 | 0.00 | 0.00 | 59 | 1016.1 |
| 20260506080157 | 48 | 212 | 0.0 | 2.0 | 0.00 | 0.00 | 0.00 | 59 | 1016.0 |
| 20260506073141 | 49 | 224 | 2.0 | 2.0 | 0.00 | 0.00 | 0.00 | 59 | 1016.4 |
| 20260506072638 | 49 | 202 | 2.0 | 2.0 | 0.00 | 0.00 | 0.00 | 60 | 1016.1 |
| 20260506072136 | 49 | 247 | 3.0 | 3.0 | 0.00 | 0.00 | 0.00 | 58 | 1016.3 |
| 20260506071633 | 49 | 187 | 2.0 | 2.0 | 0.00 | 0.00 | 0.00 | 58 | 1016.3 |
| 20260506071131 | 49 | 254 | 2.0 | 4.0 | 0.00 | 0.00 | 0.00 | 58 | 1016.2 |
| 20260506070628 | 50 | 200 | 0.0 | 3.0 | 0.00 | 0.00 | 0.00 | 58 | 1016.4 |
| 20260506070125 | 50 | 195 | 2.0 | 3.0 | 0.00 | 0.00 | 0.00 | 59 | 1016.3 |
| 20260506062103 | 51 | 223 | 7.0 | 7.0 | 0.00 | 0.00 | 0.00 | 58 | 1016.2 |
| 20260506061558 | 51 | 190 | 2.0 | 4.0 | 0.00 | 0.00 | 0.00 | 58 | 1016.0 |
| 20260506061056 | 51 | 247 | 4.0 | 6.0 | 0.00 | 0.00 | 0.00 | 57 | 1016.1 |
| 20260506060554 | 51 | 234 | 2.0 | 6.0 | 0.00 | 0.00 | 0.00 | 55 | 1015.8 |
| 20260506051017 | 50 | 223 | 2.0 | 6.0 | 0.00 | 0.04 | 0.04 | 60 | 1015.8 |
| 20260506050515 | 50 | 210 | 1.0 | 5.0 | 0.00 | 0.04 | 0.04 | 59 | 1015.8 |
| 20260506045005 | 50 | 251 | 5.0 | 9.0 | 0.00 | 0.04 | 0.04 | 59 | 1015.8 |
| 20260506044503 | 50 | 231 | 6.0 | 9.0 | 0.00 | 0.04 | 0.04 | 59 | 1015.7 |
| 20260506043959 | 50 | 230 | 6.0 | 6.0 | 0.00 | 0.04 | 0.04 | 60 | 1015.8 |
| 20260506043456 | 50 | 231 | 4.0 | 11.0 | 0.00 | 0.04 | 0.04 | 59 | 1016.1 |
| 20260506042954 | 50 | 221 | 4.0 | 12.0 | 0.00 | 0.04 | 0.04 | 58 | 1016.0 |
| 20260506042449 | 50 | 201 | 3.0 | 7.0 | 0.00 | 0.04 | 0.04 | 58 | 1015.7 |
| 20260506041946 | 50 | 285 | 5.0 | 12.0 | 0.00 | 0.04 | 0.04 | 58 | 1015.6 |
| 20260506041444 | 50 | 233 | 4.0 | 8.0 | 0.00 | 0.04 | 0.04 | 59 | 1015.2 |
| 20260506040941 | 50 | 236 | 6.0 | 11.0 | 0.00 | 0.04 | 0.04 | 60 | 1015.5 |
| 20260506040438 | 50 | 226 | 4.0 | 10.0 | 0.00 | 0.04 | 0.04 | 61 | 1015.7 |
| 20260506035934 | 50 | 185 | 3.0 | 10.0 | 0.00 | 0.04 | 0.04 | 61 | 1015.2 |
| 20260506035432 | 50 | 224 | 5.0 | 7.0 | 0.00 | 0.04 | 0.04 | 62 | 1015.2 |
| 20260506034928 | 50 | 228 | 5.0 | 9.0 | 0.00 | 0.04 | 0.04 | 62 | 1015.2 |
| 20260506034426 | 50 | 220 | 8.0 | 11.0 | 0.00 | 0.04 | 0.04 | 62 | 1014.9 |
| 20260506033923 | 50 | 209 | 7.0 | 11.0 | 0.00 | 0.04 | 0.04 | 62 | 1015.2 |
| 20260506033420 | 50 | 242 | 2.0 | 7.0 | 0.00 | 0.04 | 0.04 | 63 | 1015.2 |
| 20260506032917 | 50 | 179 | 2.0 | 12.0 | 0.00 | 0.04 | 0.04 | 62 | 1014.6 |
| 20260506032414 | 50 | 201 | 3.0 | 8.0 | 0.00 | 0.04 | 0.04 | 62 | 1014.6 |
| 20260506031910 | 50 | 217 | 10.0 | 11.0 | 0.00 | 0.04 | 0.04 | 62 | 1014.6 |
| 20260506031408 | 50 | 204 | 4.0 | 18.0 | 0.00 | 0.04 | 0.04 | 62 | 1014.6 |
| 20260506030905 | 50 | 6 | 2.0 | 11.0 | 0.00 | 0.04 | 0.04 | 63 | 1014.8 |
| 20260506030403 | 50 | 255 | 8.0 | 14.0 | 0.00 | 0.04 | 0.04 | 63 | 1014.4 |
| 20260506025900 | 50 | 212 | 4.0 | 13.0 | 0.00 | 0.04 | 0.04 | 63 | 1014.5 |
| 20260506025356 | 50 | 221 | 6.0 | 13.0 | 0.00 | 0.04 | 0.04 | 63 | 1014.4 |
| 20260506024854 | 51 | 242 | 4.0 | 17.0 | 0.00 | 0.04 | 0.04 | 63 | 1014.3 |
| 20260506024351 | 51 | 207 | 4.0 | 12.0 | 0.00 | 0.04 | 0.04 | 62 | 1014.0 |
| 20260506023846 | 52 | 219 | 6.0 | 16.0 | 0.00 | 0.04 | 0.04 | 61 | 1013.8 |
| 20260506023343 | 52 | 198 | 7.0 | 14.0 | 0.00 | 0.04 | 0.04 | 60 | 1013.7 |
| 20260506022840 | 53 | 230 | 7.0 | 17.0 | 0.00 | 0.04 | 0.04 | 58 | 1013.6 |
| 20260506022338 | 55 | 215 | 11.0 | 13.0 | 0.00 | 0.04 | 0.04 | 55 | 1013.8 |
| 20260506021836 | 54 | 185 | 2.0 | 2.0 | 0.00 | 0.04 | 0.04 | 57 | 1013.1 |
| 20260506021332 | 54 | 164 | 0.0 | 1.0 | 0.00 | 0.04 | 0.04 | 58 | 1013.1 |
| 20260506020829 | 54 | 124 | 0.0 | 0.0 | 0.00 | 0.04 | 0.04 | 57 | 1013.0 |
| 20260506020327 | 55 | 124 | 0.0 | 1.0 | 0.00 | 0.04 | 0.04 | 56 | 1012.6 |
| 20260506015824 | 55 | 150 | 0.0 | 2.0 | 0.00 | 0.04 | 0.04 | 53 | 1012.4 |
| 20260506015322 | 55 | 124 | 0.0 | 4.0 | 0.00 | 0.04 | 0.04 | 52 | 1012.1 |
| 20260506014818 | 56 | 113 | 2.0 | 2.0 | 0.00 | 0.04 | 0.04 | 52 | 1012.5 |
| 20260506014315 | 56 | 85 | 1.0 | 4.0 | 0.00 | 0.04 | 0.04 | 50 | 1012.4 |
| 20260506013812 | 57 | 139 | 0.0 | 3.0 | 0.00 | 0.04 | 0.04 | 53 | 1012.3 |
| 20260506013309 | 57 | 28 | 1.0 | 2.0 | 0.00 | 0.04 | 0.04 | 52 | 1012.4 |
| 20260506012806 | 57 | 131 | 2.0 | 2.0 | 0.00 | 0.04 | 0.04 | 53 | 1012.0 |
| 20260506012307 | 57 | 183 | 2.0 | 2.0 | 0.00 | 0.04 | 0.04 | 52 | 1012.1 |
| 20260506011800 | 58 | 162 | 2.0 | 4.0 | 0.00 | 0.04 | 0.04 | 50 | 1012.0 |
| 20260506011256 | 58 | 130 | 2.0 | 5.0 | 0.00 | 0.04 | 0.04 | 49 | 1012.0 |
| 20260506010754 | 58 | 99 | 2.0 | 5.0 | 0.00 | 0.04 | 0.04 | 47 | 1012.1 |
| 20260506010252 | 58 | 36 | 4.0 | 4.0 | 0.00 | 0.04 | 0.04 | 47 | 1012.0 |
| 20260506005749 | 58 | 180 | 3.0 | 5.0 | 0.00 | 0.04 | 0.04 | 51 | 1012.5 |
| 20260506005245 | 57 | 122 | 2.0 | 2.0 | 0.00 | 0.04 | 0.04 | 51 | 1012.4 |
| 20260506004741 | 57 | 126 | 0.0 | 2.0 | 0.00 | 0.04 | 0.04 | 52 | 1012.1 |
| 20260506004239 | 57 | 55 | 0.0 | 0.0 | 0.00 | 0.04 | 0.04 | 51 | 1012.0 |
| 20260506003735 | 57 | 73 | 1.0 | 2.0 | 0.00 | 0.04 | 0.04 | 50 | 1012.1 |
| 20260506003231 | 57 | 275 | 0.0 | 2.0 | 0.00 | 0.04 | 0.04 | 50 | 1012.3 |
| 20260506002727 | 57 | 130 | 0.0 | 2.0 | 0.00 | 0.04 | 0.04 | 50 | 1012.3 |
| 20260506002224 | 57 | 142 | 0.0 | 2.0 | 0.00 | 0.04 | 0.04 | 49 | 1012.5 |
| 20260506001720 | 58 | 214 | 2.0 | 2.0 | 0.00 | 0.04 | 0.04 | 49 | 1012.1 |
| 20260506001217 | 58 | 205 | 2.0 | 5.0 | 0.00 | 0.04 | 0.04 | 49 | 1011.9 |
| 20260506000714 | 58 | 95 | 4.0 | 6.0 | 0.00 | 0.04 | 0.04 | 48 | 1011.9 |
| 20260506000212 | 58 | 43 | 3.0 | 5.0 | 0.00 | 0.04 | 0.04 | 48 | 1012.0 |
| 20260505235709 | 59 | 26 | 5.0 | 8.0 | 0.00 | 0.04 | 0.04 | 46 | 1012.1 |
| 20260505235207 | 59 | 177 | 2.0 | 4.0 | 0.00 | 0.04 | 0.04 | 48 | 1011.9 |
| 20260505234703 | 59 | 20 | 3.0 | 6.0 | 0.00 | 0.04 | 0.04 | 47 | 1011.9 |
| 20260505234200 | 62 | 327 | 2.0 | 6.0 | 0.00 | 0.04 | 0.04 | 44 | 1011.9 |
| 20260505233657 | 60 | 57 | 2.0 | 3.0 | 0.00 | 0.04 | 0.04 | 48 | 1012.0 |
| 20260505233155 | 59 | 188 | 2.0 | 3.0 | 0.00 | 0.04 | 0.04 | 49 | 1012.1 |
| 20260505232652 | 58 | 284 | 5.0 | 6.0 | 0.00 | 0.04 | 0.04 | 51 | 1011.9 |
| 20260505232149 | 58 | 214 | 3.0 | 3.0 | 0.00 | 0.04 | 0.04 | 52 | 1012.3 |
| 20260505231645 | 58 | 172 | 2.0 | 3.0 | 0.00 | 0.04 | 0.04 | 51 | 1012.7 |
| 20260505231144 | 59 | 107 | 7.0 | 9.0 | 0.00 | 0.04 | 0.04 | 49 | 1012.7 |
| 20260505230637 | 59 | 21 | 0.0 | 3.0 | 0.00 | 0.04 | 0.04 | 50 | 1012.5 |
| 20260505230133 | 58 | 151 | 2.0 | 2.0 | 0.00 | 0.04 | 0.04 | 49 | 1012.3 |
| 20260505225629 | 59 | 243 | 2.0 | 4.0 | 0.00 | 0.04 | 0.04 | 48 | 1012.6 |
| 20260505225125 | 58 | 163 | 2.0 | 4.0 | 0.00 | 0.04 | 0.04 | 58 | 1012.3 |
| 20260505224622 | 57 | 228 | 3.0 | 5.0 | 0.00 | 0.04 | 0.04 | 55 | 1012.4 |
| 20260505224120 | 57 | 55 | 1.0 | 3.0 | 0.00 | 0.04 | 0.04 | 56 | 1012.5 |
| 20260505223617 | 57 | 200 | 1.0 | 2.0 | 0.00 | 0.04 | 0.04 | 64 | 1012.5 |
| 20260505223113 | 56 | 217 | 5.0 | 5.0 | 0.00 | 0.04 | 0.04 | 68 | 1012.7 |
| 20260505222610 | 55 | 207 | 0.0 | 4.0 | 0.00 | 0.04 | 0.04 | 71 | 1012.8 |
| 20260505222106 | 54 | 50 | 2.0 | 4.0 | 0.00 | 0.04 | 0.04 | 75 | 1013.2 |
| 20260505221603 | 52 | 56 | 4.0 | 4.0 | 0.05 | 0.04 | 0.04 | 73 | 1013.6 |
| 20260505221059 | 52 | 61 | 4.0 | 4.0 | 0.09 | 0.04 | 0.04 | 75 | 1013.6 |
| 20260505220556 | 52 | 135 | 0.0 | 2.0 | 0.12 | 0.04 | 0.04 | 75 | 1013.8 |
| 20260505220054 | 52 | 109 | 1.0 | 5.0 | 0.09 | 0.02 | 0.02 | 73 | 1013.6 |
| 20260505215552 | 54 | 131 | 0.0 | 11.0 | 0.00 | 0.01 | 0.01 | 65 | 1013.7 |
| 20260505215050 | 55 | 79 | 5.0 | 10.0 | 0.00 | 0.01 | 0.01 | 61 | 1013.2 |
| 20260505214548 | 55 | 69 | 5.0 | 12.0 | 0.00 | 0.01 | 0.01 | 59 | 1013.6 |
| 20260505214044 | 57 | 88 | 5.0 | 14.0 | 0.00 | 0.01 | 0.01 | 56 | 1013.3 |
| 20260505213542 | 58 | 102 | 6.0 | 9.0 | 0.00 | 0.01 | 0.01 | 56 | 1013.4 |
| 20260505213038 | 59 | 112 | 3.0 | 4.0 | 0.00 | 0.01 | 0.01 | 50 | 1013.2 |
| 20260505212535 | 60 | 114 | 6.0 | 11.0 | 0.00 | 0.01 | 0.01 | 48 | 1013.2 |
| 20260505212032 | 60 | 46 | 3.0 | 9.0 | 0.00 | 0.01 | 0.01 | 48 | 1013.4 |
| 20260505211529 | 59 | 111 | 3.0 | 5.0 | 0.00 | 0.01 | 0.01 | 50 | 1013.1 |
| 20260505211025 | 60 | 108 | 3.0 | 7.0 | 0.00 | 0.01 | 0.01 | 50 | 1013.2 |
| 20260505210522 | 60 | 132 | 1.0 | 3.0 | 0.00 | 0.01 | 0.01 | 49 | 1013.2 |
| 20260505210020 | 60 | 75 | 2.0 | 9.0 | 0.00 | 0.01 | 0.01 | 48 | 1013.2 |
| 20260505205518 | 62 | 93 | 7.0 | 9.0 | 0.00 | 0.01 | 0.01 | 46 | 1013.3 |
| 20260505205014 | 63 | 257 | 1.0 | 6.0 | 0.00 | 0.01 | 0.01 | 46 | 1013.3 |
| 20260505204512 | 62 | 197 | 2.0 | 6.0 | 0.00 | 0.01 | 0.01 | 45 | 1013.0 |
| 20260505204009 | 61 | 95 | 0.0 | 10.0 | 0.00 | 0.01 | 0.01 | 46 | 1013.6 |
| 20260505203506 | 61 | 287 | 2.0 | 7.0 | 0.00 | 0.01 | 0.01 | 47 | 1013.6 |
| 20260505203003 | 61 | 122 | 2.0 | 4.0 | 0.00 | 0.01 | 0.01 | 49 | 1013.9 |
| 20260505202459 | 59 | 111 | 2.0 | 4.0 | 0.00 | 0.01 | 0.01 | 51 | 1013.7 |
| 20260505201954 | 60 | 317 | 2.0 | 4.0 | 0.00 | 0.01 | 0.01 | 50 | 1013.9 |
| 20260505201452 | 60 | 249 | 6.0 | 7.0 | 0.00 | 0.01 | 0.01 | 49 | 1013.6 |
| 20260505200949 | 60 | 192 | 3.0 | 6.0 | 0.00 | 0.01 | 0.01 | 49 | 1013.7 |
| 20260505200447 | 58 | 21 | 1.0 | 5.0 | 0.00 | 0.01 | 0.01 | 55 | 1013.9 |
| 20260505195943 | 56 | 257 | 0.0 | 4.0 | 0.00 | 0.01 | 0.01 | 59 | 1013.6 |
| 20260505195440 | 56 | 128 | 4.0 | 4.0 | 0.00 | 0.01 | 0.01 | 59 | 1013.9 |
| 20260505194937 | 56 | 256 | 0.0 | 2.0 | 0.00 | 0.01 | 0.01 | 58 | 1014.3 |
| 20260505194435 | 57 | 79 | 2.0 | 4.0 | 0.00 | 0.01 | 0.01 | 59 | 1014.0 |
| 20260505193934 | 57 | 121 | 2.0 | 4.0 | 0.00 | 0.01 | 0.01 | 61 | 1014.0 |
| 20260505193432 | 57 | 282 | 2.0 | 4.0 | 0.00 | 0.01 | 0.01 | 62 | 1013.9 |
| 20260505192930 | 56 | 109 | 2.0 | 6.0 | 0.00 | 0.01 | 0.01 | 62 | 1014.2 |
| 20260505192428 | 55 | 128 | 3.0 | 4.0 | 0.00 | 0.01 | 0.01 | 69 | 1014.0 |
| 20260505191925 | 55 | 228 | 2.0 | 4.0 | 0.00 | 0.01 | 0.01 | 66 | 1014.4 |
| 20260505191424 | 55 | 136 | 2.0 | 4.0 | 0.00 | 0.01 | 0.01 | 67 | 1014.4 |
| 20260505190920 | 54 | 89 | 2.0 | 4.0 | 0.00 | 0.01 | 0.01 | 72 | 1014.4 |
| 20260505190416 | 53 | 130 | 4.0 | 6.0 | 0.02 | 0.01 | 0.01 | 70 | 1014.4 |
| 20260505185911 | 52 | 120 | 3.0 | 4.0 | 0.05 | 0.01 | 0.01 | 76 | 1014.4 |
| 20260505185409 | 52 | 140 | 3.0 | 6.0 | 0.02 | 0.00 | 0.00 | 72 | 1014.3 |
| 20260505184904 | 53 | 138 | 5.0 | 8.0 | 0.00 | 0.00 | 0.00 | 69 | 1014.3 |
| 20260505184401 | 53 | 98 | 2.0 | 6.0 | 0.00 | 0.00 | 0.00 | 66 | 1014.4 |
| 20260505183859 | 54 | 129 | 5.0 | 11.0 | 0.00 | 0.00 | 0.00 | 61 | 1014.3 |
| 20260505183355 | 55 | 109 | 5.0 | 11.0 | 0.00 | 0.00 | 0.00 | 58 | 1014.4 |
| 20260505182852 | 56 | 126 | 3.0 | 11.0 | 0.00 | 0.00 | 0.00 | 54 | 1014.2 |
| 20260505182349 | 57 | 92 | 3.0 | 11.0 | 0.00 | 0.00 | 0.00 | 51 | 1014.4 |
| 20260505181846 | 58 | 99 | 5.0 | 6.0 | 0.00 | 0.00 | 0.00 | 50 | 1014.0 |
| 20260505181343 | 58 | 110 | 0.0 | 6.0 | 0.00 | 0.00 | 0.00 | 49 | 1014.0 |
| 20260505180839 | 58 | 54 | 7.0 | 14.0 | 0.00 | 0.00 | 0.00 | 48 | 1014.0 |
| 20260505180336 | 58 | 98 | 2.0 | 5.0 | 0.00 | 0.00 | 0.00 | 47 | 1013.9 |
| 20260505175832 | 59 | 65 | 7.0 | 9.0 | 0.00 | 0.00 | 0.00 | 46 | 1014.0 |
| 20260505175329 | 59 | 202 | 0.0 | 7.0 | 0.00 | 0.00 | 0.00 | 46 | 1013.9 |
| 20260505174825 | 59 | 142 | 7.0 | 10.0 | 0.00 | 0.00 | 0.00 | 46 | 1014.0 |
| 20260505174323 | 61 | 100 | 4.0 | 12.0 | 0.00 | 0.00 | 0.00 | 42 | 1014.0 |
| 20260505173819 | 61 | 181 | 1.0 | 6.0 | 0.00 | 0.00 | 0.00 | 43 | 1013.9 |
| 20260505173316 | 61 | 122 | 4.0 | 9.0 | 0.00 | 0.00 | 0.00 | 43 | 1014.2 |
| 20260505172813 | 59 | 212 | 2.0 | 4.0 | 0.00 | 0.00 | 0.00 | 45 | 1014.3 |
| 20260505172310 | 59 | 112 | 2.0 | 5.0 | 0.00 | 0.00 | 0.00 | 44 | 1014.0 |
| 20260505171804 | 59 | 172 | 1.0 | 4.0 | 0.00 | 0.00 | 0.00 | 45 | 1014.3 |
| 20260505171302 | 58 | 147 | 2.0 | 4.0 | 0.00 | 0.00 | 0.00 | 46 | 1014.0 |
| 20260505170758 | 56 | 74 | 2.0 | 5.0 | 0.00 | 0.00 | 0.00 | 48 | 1014.2 |
| 20260505170255 | 55 | 105 | 4.0 | 8.0 | 0.00 | 0.00 | 0.00 | 50 | 1014.8 |
| 20260505165755 | 55 | 104 | 5.0 | 6.0 | 0.00 | 0.00 | 0.00 | 50 | 1014.2 |
| 20260505165252 | 55 | 119 | 4.0 | 9.0 | 0.00 | 0.00 | 0.00 | 49 | 1014.3 |
| 20260505164748 | 55 | 228 | 2.0 | 4.0 | 0.00 | 0.00 | 0.00 | 50 | 1014.0 |
| 20260505164245 | 56 | 227 | 2.0 | 5.0 | 0.00 | 0.00 | 0.00 | 50 | 1014.2 |
| 20260505163743 | 55 | 123 | 2.0 | 6.0 | 0.00 | 0.00 | 0.00 | 52 | 1014.5 |
| 20260505163242 | 54 | 233 | 0.0 | 6.0 | 0.00 | 0.00 | 0.00 | 53 | 1014.2 |
| 20260505162739 | 54 | 169 | 4.0 | 4.0 | 0.00 | 0.00 | 0.00 | 54 | 1014.4 |
| 20260505162235 | 53 | 175 | 2.0 | 4.0 | 0.00 | 0.00 | 0.00 | 56 | 1014.4 |
| 20260505161732 | 53 | 195 | 4.0 | 6.0 | 0.00 | 0.00 | 0.00 | 56 | 1014.6 |
| 20260505161230 | 53 | 111 | 0.0 | 5.0 | 0.00 | 0.00 | 0.00 | 58 | 1014.6 |
| 20260505160727 | 53 | 164 | 2.0 | 6.0 | 0.00 | 0.00 | 0.00 | 58 | 1014.8 |
| 20260505160225 | 53 | 190 | 2.0 | 4.0 | 0.00 | 0.00 | 0.00 | 59 | 1014.9 |
| 20260505153204 | 53 | 127 | 0.0 | 8.0 | 0.00 | 0.00 | 0.00 | 59 | 1015.1 |
| 20260505152700 | 53 | 204 | 3.0 | 11.0 | 0.00 | 0.00 | 0.00 | 58 | 1015.0 |
| 20260505152156 | 52 | 193 | 2.0 | 7.0 | 0.00 | 0.00 | 0.00 | 60 | 1015.0 |
| 20260505151652 | 52 | 220 | 2.0 | 6.0 | 0.00 | 0.00 | 0.00 | 61 | 1015.1 |
| 20260505151149 | 52 | 192 | 4.0 | 13.0 | 0.00 | 0.00 | 0.00 | 62 | 1015.0 |
| 20260505150645 | 52 | 187 | 2.0 | 7.0 | 0.00 | 0.00 | 0.00 | 64 | 1015.1 |
| 20260505150143 | 52 | 215 | 3.0 | 8.0 | 0.00 | 0.00 | 0.00 | 64 | 1015.2 |
| 20260505140611 | 53 | 183 | 5.0 | 6.0 | 0.00 | 0.00 | 0.00 | 54 | 1015.4 |
| 20260505140108 | 54 | 173 | 4.0 | 5.0 | 0.00 | 0.00 | 0.00 | 50 | 1015.4 |